Regional Weather Roundup
Issued by NWS Jackson, KY

Home | Current Version | Previous Version | Text Only | Print | Product List | Glossary On
Versions: 1 2 3 4 5 6 7 8 9 10 11 12 13 14 15 16 17 18 19 20 21 22 23 24 25 26 27 28 29 30 31 32 33 34 35 36 37 38 39 40 41 42 43 44 45 46 47 48 49 50
000
ASUS43 KJKL 041710
RWRJKL

EAST KENTUCKY HOURLY WEATHER ROUNDUP
NATIONAL WEATHER SERVICE JACKSON KY
1200 PM EST WED MAR 04 2015

NOTE: "FAIR" INDICATES FEW OR NO CLOUDS BELOW 12,000 FEET WITH
NO SIGNIFICANT WEATHER AND/OR OBSTRUCTIONS TO VISIBILITY.

* THESE REPORTS ARE NOT UNDER NWS QUALITY CONTROL AND MAY NOT
  REPORT WEATHER SUCH AS PRECIPITATION AND FOG.

KYZ079-080-083-085-087-088-110-112-115-119-120-041800
...EASTERN KENTUCKY...

CITY           SKY/WX    TMP DP  RH WIND       PRES   REMARKS
JACKSON        RAIN      50  49  96 CALM      29.91S VSB 1/4
LONDON         LGT RAIN  52  50  93 CALM      29.92R FOG
SOMERSET*      RAIN      50  50 100 CALM      29.93F
MONTICELLO*    FOG       52  52 100 CALM      29.95S VSB 3/4
MIDDLESBORO*   DRIZZLE   50  50 100 CALM      29.92F
HAZARD APT*    LGT RAIN  52  52 100 CALM      29.91F
BLACK MTN*       N/A     45  45 100 S3          N/A
PIKEVILLE APT* DRIZZLE   48  48 100 S7        29.91S
BIG SANDY*     RAIN      51  50  97 SW3       29.92S
MOREHEAD APT*  RAIN      41  39  93 VRB6      29.99R
$$

KYZ035-036-041-042-044-050-067-078-099-041800
...CENTRAL KENTUCKY...

CITY           SKY/WX    TMP DP  RH WIND       PRES   REMARKS
MT STERLING*   LGT RAIN  41  41 100 N8        29.98R
FLEMING/MASON* RAIN      36  36 100 N9        29.98R WCI  29
DANVILLE*      LGT RAIN  41  41 100 N9        29.97S
RICHMOND*      CLOUDY    43  41  93 NW9       29.97R
LEXINGTON      RAIN      39  37  92 N9        29.98S FOG     WCI  33
FRANKFORT      LGT RAIN  38  35  89 N7        29.98R FOG     WCI  33
$$

KYZ091>093-OHZ055-061-077-WVZ005-015-034-035-042-041800
...SOUTHERN OHIO/WEST VIRGINIA...

CITY           SKY/WX    TMP DP  RH WIND       PRES   REMARKS
COVINGTON      CLOUDY    36  31  82 N7        30.00R WCI  30
COLUMBUS       CLOUDY    35  30  82 NW6       29.96S HAZE    WCI  30
DAYTON         CLOUDY    34  26  72 NW12      30.01R WCI  25
WILMINGTON     CLOUDY    34  30  85 N5        29.98R WCI  30
HUNTINGTON     RAIN      40  40 100 NW8       29.94R FOG     WCI  34
CHARLESTON     RAIN      50  49  96 NW3       29.89F FOG
PINEVILLE*     DRZL/FOG  43  43 100 MISG      29.98F VSB 1/2
BECKLEY        LGT RAIN  45  45 100 S9        29.91F FOG
BLUEFIELD      LGT RAIN  49  45  86 CALM      29.94R FOG
$$

VAZ002-007-008-TNZ017-027-036-066-071-041800
...SOUTHWEST VIRGINIA/EAST TENNESSEE...

CITY           SKY/WX    TMP DP  RH WIND       PRES   REMARKS
WISE*          DRIZZLE   46  46 100 SE3       29.93F
JONESVILLE*    LGT RAIN  45  45 100 NE3       29.93F VSB<1/4
ABINGDON*      CLOUDY    54  54 100 CALM      29.91F
BRISTOL        CLOUDY    69  57  65 SW18G24   29.87F
KNOXVILLE      CLOUDY    68  59  73 SW26G33   29.89F
OAK RIDGE      CLOUDY    66  59  78 SW12G20   29.90F
CROSSVILLE     CLOUDY    62  58  86 S10       29.90F
NASHVILLE      LGT RAIN  50  48  93 N14G22    29.94S FOG
$$

...KEY TO REMARKS...
VSB - VISIBILITY IN MILES
WCI - WIND CHILL INDEX
HX  - HEAT INDEX

$$



USA.gov is the U.S. government's official web portal to all federal, state and local government web resources and services.